Location: Shenandoah County Park
(38.9356°N, 78.4524°W)
Time: 22:15:15
(UTC-05:00)

Explorer 7 - All Passes

Search period start: 30 November 2023 00:00
Search period end: 10 December 2023 00:00
Orbit: 472 x 641 km, 50.3° (Epoch: 30 November)

Date Brightness Start Highest point End Pass type
(mag) Time Alt. Az. Time Alt. Az. Time Alt. Az.
30 Nov - 01:03:49 10° W 01:07:01 23° SW 01:10:21 10° S night (unlit)
30 Nov - 16:38:05 10° SSW 16:41:37 44° SE 16:45:08 10° ENE daylight
30 Nov - 18:18:21 10° W 18:21:37 29° NNW 18:24:55 10° NE visible
30 Nov - 20:00:17 10° NW 20:02:28 15° N 20:04:41 10° NNE visible
30 Nov - 21:40:34 10° NNW 21:43:29 20° NNE 21:46:30 10° ENE night (unlit)
30 Nov - 23:19:59 10° NW 23:23:53 77° NE 23:27:59 10° ESE night (unlit)
01 Dec - 01:01:01 10° W 01:03:28 16° SW 01:05:59 10° SSW night (unlit)
01 Dec - 16:34:28 10° SW 16:38:08 68° SE 16:41:48 10° ENE daylight
01 Dec - 18:15:17 10° WNW 18:18:19 24° NNW 18:21:22 10° NE visible
01 Dec - 19:57:08 10° NW 19:59:16 14° N 20:01:24 10° NE visible
01 Dec - 21:37:03 10° NW 21:40:12 24° NNE 21:43:27 10° ENE night (unlit)
01 Dec - 23:16:33 10° WNW 23:20:26 75° SW 23:24:30 10° SE night (unlit)
02 Dec - 00:59:21 10° WSW 00:59:52 10° SW 01:00:23 10° SW night (unlit)
02 Dec - 14:53:39 10° SSE 14:55:13 12° SE 14:56:47 10° ESE daylight
02 Dec - 16:30:58 10° WSW 16:34:39 81° NW 16:38:21 10° NE daylight
02 Dec - 18:12:14 10° WNW 18:15:01 20° NNW 18:17:49 10° NNE visible
02 Dec - 19:53:52 10° NNW 19:56:01 15° N 19:58:14 10° NE visible
02 Dec - 21:33:30 10° NW 21:36:52 29° NNE 21:40:21 10° E night (unlit)
02 Dec - 23:13:09 10° WNW 23:16:55 51° SW 23:20:53 10° SE night (unlit)
03 Dec - 14:48:56 10° S 14:51:35 19° SE 14:54:12 10° E daylight
03 Dec - 16:27:32 10° WSW 16:31:12 56° NNW 16:34:50 10° NE daylight
03 Dec - 18:09:11 10° WNW 18:11:43 17° NNW 18:14:15 10° NNE visible
03 Dec - 19:50:27 10° NNW 19:52:45 15° N 19:55:05 10° NE visible
03 Dec - 21:29:55 10° NW 21:33:28 37° NNE 21:37:09 10° E night (unlit)
03 Dec - 23:09:49 10° WNW 23:13:22 34° SW 23:17:03 10° SSE night (unlit)
04 Dec - 14:44:44 10° SSW 14:47:57 27° SE 14:51:08 10° ENE daylight
04 Dec - 16:24:13 10° W 16:27:44 40° NNW 16:31:14 10° NE daylight
04 Dec - 18:06:06 10° NW 18:08:24 16° N 18:10:43 10° NNE visible
04 Dec - 19:46:57 10° NNW 19:49:27 17° NNE 19:51:59 10° NE visible
04 Dec - 21:26:20 10° NW 21:30:01 50° NNE 21:33:51 10° ESE night (unlit)
04 Dec - 23:06:36 10° W 23:09:45 23° SW 23:12:59 10° S night (unlit)
05 Dec - 14:40:47 10° SSW 14:44:20 41° SE 14:47:49 10° ENE daylight
05 Dec - 16:20:57 10° W 16:24:17 31° NNW 16:27:36 10° NE daylight
05 Dec - 18:02:57 10° NW 18:05:05 15° N 18:07:13 10° NNE visible
05 Dec - 19:43:22 10° NNW 19:46:06 19° NNE 19:48:53 10° ENE visible
05 Dec - 21:22:44 10° NW 21:26:30 70° NE 21:30:25 10° ESE night (unlit)
05 Dec - 23:03:39 10° W 23:06:05 16° SW 23:08:35 10° S night (unlit)
06 Dec - 14:36:59 10° SW 14:40:43 62° SE 14:44:22 10° ENE daylight
06 Dec - 16:17:44 10° W 16:20:50 25° NNW 16:23:56 10° NE daylight
06 Dec - 17:59:42 10° NW 18:01:44 14° N 18:03:48 10° NNE visible
06 Dec - 19:39:42 10° NNW 19:42:41 22° NNE 19:45:43 10° ENE visible
06 Dec - 21:19:09 10° NW 21:22:55 82° SW 21:26:51 10° SE night (unlit)
06 Dec - 23:01:31 10° WSW 23:02:21 11° SW 23:03:10 10° SW night (unlit)
07 Dec - 12:56:20 10° SSE 12:57:40 12° SE 12:59:00 10° ESE daylight
07 Dec - 14:33:19 10° SW 14:37:06 88° NW 14:40:49 10° NE daylight
07 Dec - 16:14:32 10° WNW 16:17:24 21° NNW 16:20:15 10° NNE daylight
07 Dec - 17:56:19 10° NNW 17:58:22 14° N 18:00:27 10° NE visible
07 Dec - 19:36:01 10° NW 19:39:14 27° NNE 19:42:31 10° E visible
07 Dec - 21:15:37 10° WNW 21:19:18 55° SW 21:23:07 10° SE night (unlit)
08 Dec - 12:51:18 10° S 12:53:55 17° SE 12:56:27 10° E daylight
08 Dec - 14:29:44 10° WSW 14:33:30 61° NNW 14:37:10 10° NE daylight
08 Dec - 16:11:21 10° WNW 16:13:57 18° NNW 16:16:33 10° NNE daylight
08 Dec - 17:52:48 10° NNW 17:54:59 15° N 17:57:10 10° NE visible
08 Dec - 19:32:18 10° NW 19:35:43 34° NNE 19:39:12 10° E visible
08 Dec - 21:12:08 10° WNW 21:15:37 36° SW 21:19:13 10° SSE night (unlit)
09 Dec - 12:46:54 10° SSW 12:50:09 26° SE 12:53:18 10° ENE daylight
09 Dec - 14:26:15 10° WSW 14:29:54 44° NNW 14:33:28 10° NE daylight
09 Dec - 16:08:08 10° NW 16:10:30 16° N 16:12:52 10° NNE daylight
09 Dec - 17:49:10 10° NNW 17:51:32 16° N 17:53:55 10° NE visible
09 Dec - 19:28:34 10° NW 19:32:08 45° NNE 19:35:48 10° ESE visible
09 Dec - 21:08:45 10° WNW 21:11:52 25° SW 21:15:04 10° S night (unlit)
